Zurück zum Katalog

THOR ABLESTAR DEB

AktivLEO
NORAD 408·DEBRIS·🇺🇸 United States

Gestartet Jun 29, 1961 von Cape Canaveral Space Force Station

Loading…

Nächste Überflüge (nächste 24 Stunden)

TLE

AktuellSource: Space-Track

Epoche: Sep 14, 2026, 11:20 UTC

1 00408U 61015EH  26257.47265199  .00000238  00000-0  31038-3 0  9991
2 00408  66.7837 256.0626 0057996  58.3187  19.7166 13.77219969317999

Verfolge THOR ABLESTAR DEB in Echtzeit mit AllMySat

Download on the App Store